Location: Rochester
(43.1610°N, 77.6109°W)
Time: 23:31:14
(UTC-04:00)

Tiangong - Visible Passes

Search period start: 16 April 2024 00:00
Search period end: 26 April 2024 00:00
Orbit: 371 x 380 km, 41.5° (Epoch: 16 April)

Date Brightness Start Highest point End Pass type
(mag) Time Alt. Az. Time Alt. Az. Time Alt. Az.
16 Apr -0.2 20:57:47 10° S 20:59:24 15° SSE 20:59:24 15° SSE visible
17 Apr -1.0 21:30:30 10° SW 21:32:36 28° S 21:32:36 28° S visible
18 Apr -0.7 20:28:23 10° SSW 20:30:48 21° SSE 20:33:14 10° ESE visible
18 Apr -0.3 22:04:04 10° WSW 22:05:29 24° WSW 22:05:29 24° WSW visible
19 Apr -1.7 21:01:31 10° WSW 21:04:28 42° SSE 21:06:04 22° ESE visible
19 Apr 0.9 22:37:51 10° W 22:38:06 12° W 22:38:06 12° W visible
20 Apr -2.2 21:35:07 10° WSW 21:38:10 62° S 21:38:29 57° SE visible
21 Apr -1.9 20:32:22 10° WSW 20:35:23 53° S 20:38:24 10° E visible
21 Apr -0.8 22:08:50 10° W 22:10:44 32° WSW 22:10:44 32° WSW visible
22 Apr -2.2 21:05:57 10° W 21:09:01 64° S 21:10:49 22° ESE visible
22 Apr 0.9 22:42:34 10° W 22:42:50 12° W 22:42:50 12° W visible
23 Apr -1.9 21:39:35 10° W 21:42:35 49° S 21:42:49 47° S visible
24 Apr -2.0 20:36:33 10° W 20:39:37 60° S 20:42:40 10° ESE visible
24 Apr -0.1 22:13:18 10° W 22:14:44 20° WSW 22:14:44 20° WSW visible
25 Apr -1.4 21:10:06 10° W 21:13:00 38° SSW 21:14:35 21° SE visible
